Location: Franzen
(48.6167°N, 15.3833°E)
Time: 16:00:45
(UTC+00:00)

Cosmos 2219 - Pass Details

Date: 04 August 2021
Orbit: 834 x 860 km, 71.1° (Epoch: 18 September)

Event Time Altitude Azimuth Distance (km) Brightness Sun altitude
Exits shadow 00:57:51 - 275° (W) 3,174 6.0 -19.5°
Reaches altitude 10° 01:00:38 10° 294° (WNW) 2,501 5.6 -19.3°
Maximum altitude 01:03:47 15° 327° (NNW) 2,180 5.7 -19.0°
Drops below altitude 10° 01:06:57 10° 1° (N) 2,507 6.5 -18.8°
Sets 01:10:39 0° 25° (NNE) 3,446 8.0 -18.4°
